Year,Month,Day,Hour,Minute,Value (Times are PST for temperature in C)
2020,04,26,00,00,9.40
2020,04,26,00,01,9.40
2020,04,26,00,02,9.40
2020,04,26,00,03,9.50
2020,04,26,00,04,9.50
2020,04,26,00,05,9.50
2020,04,26,00,06,9.50
2020,04,26,00,07,9.50
2020,04,26,00,08,9.50
2020,04,26,00,09,9.50
2020,04,26,00,10,9.40
2020,04,26,00,11,9.40
2020,04,26,00,12,9.40
2020,04,26,00,13,9.30
2020,04,26,00,14,9.30
2020,04,26,00,15,9.30
2020,04,26,00,16,9.20
2020,04,26,00,17,9.30
2020,04,26,00,18,9.30
2020,04,26,00,19,9.30
2020,04,26,00,20,9.30
2020,04,26,00,21,9.30
2020,04,26,00,22,9.30
2020,04,26,00,23,9.30
2020,04,26,00,24,9.20
2020,04,26,00,25,9.20
2020,04,26,00,26,9.20
2020,04,26,00,27,9.20
2020,04,26,00,28,9.20
2020,04,26,00,29,9.20
2020,04,26,00,30,9.10
2020,04,26,00,31,9.10
2020,04,26,00,32,9.10
2020,04,26,00,33,9.10
2020,04,26,00,34,9.10
2020,04,26,00,35,9.10
2020,04,26,00,36,9.10
2020,04,26,00,37,9.20
2020,04,26,00,38,9.20
2020,04,26,00,39,9.20
2020,04,26,00,40,9.20
2020,04,26,00,41,9.20
2020,04,26,00,42,9.20
2020,04,26,00,43,9.20
2020,04,26,00,44,9.20
2020,04,26,00,45,9.10
2020,04,26,00,46,9.10
2020,04,26,00,47,9.00
2020,04,26,00,48,9.00
2020,04,26,00,49,9.00
2020,04,26,00,50,8.90
2020,04,26,00,51,8.90
2020,04,26,00,52,8.90
2020,04,26,00,53,8.80
2020,04,26,00,54,8.80
2020,04,26,00,55,8.80
2020,04,26,00,56,8.80
2020,04,26,00,57,8.80
2020,04,26,00,58,8.80
2020,04,26,00,59,8.80
2020,04,26,01,00,8.80
2020,04,26,01,01,8.80
2020,04,26,01,02,8.70
2020,04,26,01,03,8.70
2020,04,26,01,04,8.60
2020,04,26,01,05,8.50
2020,04,26,01,06,8.50
2020,04,26,01,07,8.50
2020,04,26,01,08,8.50
2020,04,26,01,09,8.50
2020,04,26,01,10,8.50
2020,04,26,01,11,8.50
2020,04,26,01,12,8.50
2020,04,26,01,13,8.60
2020,04,26,01,14,8.60
2020,04,26,01,15,8.60
2020,04,26,01,16,8.60
2020,04,26,01,17,8.70
2020,04,26,01,18,8.70
2020,04,26,01,19,8.70
2020,04,26,01,20,8.70
2020,04,26,01,21,8.70
2020,04,26,01,22,8.70
2020,04,26,01,23,8.70
2020,04,26,01,24,8.80
2020,04,26,01,25,8.80
2020,04,26,01,26,8.80
2020,04,26,01,27,8.80
2020,04,26,01,28,8.80
2020,04,26,01,29,8.80
2020,04,26,01,30,8.90
2020,04,26,01,31,8.90
2020,04,26,01,32,8.90
2020,04,26,01,33,8.90
2020,04,26,01,34,8.90
2020,04,26,01,35,8.90
2020,04,26,01,36,8.90
2020,04,26,01,37,8.80
2020,04,26,01,38,8.80
2020,04,26,01,39,8.80
2020,04,26,01,40,8.80
2020,04,26,01,41,8.90
2020,04,26,01,42,8.90
2020,04,26,01,43,8.80
2020,04,26,01,44,8.90
2020,04,26,01,45,8.90
2020,04,26,01,46,8.80
2020,04,26,01,47,8.70
2020,04,26,01,48,8.70
2020,04,26,01,49,8.70
2020,04,26,01,50,8.60
2020,04,26,01,51,8.50
2020,04,26,01,52,8.50
2020,04,26,01,53,8.40
2020,04,26,01,54,8.30
2020,04,26,01,55,8.30
2020,04,26,01,56,8.20
2020,04,26,01,57,8.20
2020,04,26,01,58,8.20
2020,04,26,01,59,8.20
2020,04,26,02,00,8.20
2020,04,26,02,01,8.20
2020,04,26,02,02,8.20
2020,04,26,02,03,8.20
2020,04,26,02,04,8.20
2020,04,26,02,05,8.10
2020,04,26,02,06,8.10
2020,04,26,02,07,8.00
2020,04,26,02,08,8.00
2020,04,26,02,09,7.90
2020,04,26,02,10,7.90
2020,04,26,02,11,7.80
2020,04,26,02,12,7.80
2020,04,26,02,13,7.80
2020,04,26,02,14,7.70
2020,04,26,02,15,7.70
2020,04,26,02,16,7.70
2020,04,26,02,17,7.60
2020,04,26,02,18,7.60
2020,04,26,02,19,7.60
2020,04,26,02,20,7.60
2020,04,26,02,21,7.60
2020,04,26,02,22,7.60
2020,04,26,02,23,7.60
2020,04,26,02,24,7.50
2020,04,26,02,25,7.60
2020,04,26,02,26,7.50
2020,04,26,02,27,7.50
2020,04,26,02,28,7.60
2020,04,26,02,29,7.60
2020,04,26,02,30,7.60
2020,04,26,02,31,7.60
2020,04,26,02,32,7.60
2020,04,26,02,33,7.60
2020,04,26,02,34,7.60
2020,04,26,02,35,7.60
2020,04,26,02,36,7.70
2020,04,26,02,37,7.80
2020,04,26,02,38,7.90
2020,04,26,02,39,7.90
2020,04,26,02,40,8.00
2020,04,26,02,41,8.00
2020,04,26,02,42,8.10
2020,04,26,02,43,8.10
2020,04,26,02,44,8.10
2020,04,26,02,45,8.20
2020,04,26,02,46,8.10
2020,04,26,02,47,8.10
2020,04,26,02,48,8.00
2020,04,26,02,49,8.00
2020,04,26,02,50,8.00
2020,04,26,02,51,8.10
2020,04,26,02,52,8.10
2020,04,26,02,53,8.20
2020,04,26,02,54,8.40
2020,04,26,02,55,8.40
2020,04,26,02,56,8.50
2020,04,26,02,57,8.60
2020,04,26,02,58,8.60
2020,04,26,02,59,8.60
2020,04,26,03,00,8.70
2020,04,26,03,01,8.70
2020,04,26,03,02,8.70
2020,04,26,03,03,8.70
2020,04,26,03,04,8.70
2020,04,26,03,05,8.80
2020,04,26,03,06,8.80
2020,04,26,03,07,8.80
2020,04,26,03,08,8.80
2020,04,26,03,09,8.80
2020,04,26,03,10,8.80
2020,04,26,03,11,8.80
2020,04,26,03,12,8.80
2020,04,26,03,13,8.70
2020,04,26,03,14,8.80
2020,04,26,03,15,8.80
2020,04,26,03,16,8.80
2020,04,26,03,17,8.80
2020,04,26,03,18,8.80
2020,04,26,03,19,8.80
2020,04,26,03,20,8.80
2020,04,26,03,21,8.80
2020,04,26,03,22,8.80
2020,04,26,03,23,8.70
2020,04,26,03,24,8.70
2020,04,26,03,25,8.70
2020,04,26,03,26,8.70
2020,04,26,03,27,8.60
2020,04,26,03,28,8.60
2020,04,26,03,29,8.60
2020,04,26,03,30,8.60
2020,04,26,03,31,8.50
2020,04,26,03,32,8.50
2020,04,26,03,33,8.40
2020,04,26,03,34,8.40
2020,04,26,03,35,8.30
2020,04,26,03,36,8.30
2020,04,26,03,37,8.20
2020,04,26,03,38,8.10
2020,04,26,03,39,8.10
2020,04,26,03,40,8.00
2020,04,26,03,41,7.90
2020,04,26,03,42,7.80
2020,04,26,03,43,7.80
2020,04,26,03,44,7.70
2020,04,26,03,45,7.70
2020,04,26,03,46,7.60
2020,04,26,03,47,7.60
2020,04,26,03,48,7.60
2020,04,26,03,49,7.50
2020,04,26,03,50,7.40
2020,04,26,03,51,7.40
2020,04,26,03,52,7.30
2020,04,26,03,53,7.30
2020,04,26,03,54,7.30
2020,04,26,03,55,7.30
2020,04,26,03,56,7.30
2020,04,26,03,57,7.30
2020,04,26,03,58,7.20
2020,04,26,03,59,7.20
2020,04,26,04,00,7.20
2020,04,26,04,01,7.20
2020,04,26,04,02,7.20
2020,04,26,04,03,7.20
2020,04,26,04,04,7.20
2020,04,26,04,05,7.20
2020,04,26,04,06,7.20
2020,04,26,04,07,7.20
2020,04,26,04,08,7.20
2020,04,26,04,09,7.20
2020,04,26,04,10,7.20
2020,04,26,04,11,7.30
2020,04,26,04,12,7.30
2020,04,26,04,13,7.40
2020,04,26,04,14,7.40
2020,04,26,04,15,7.40
2020,04,26,04,16,7.40
2020,04,26,04,17,7.40
2020,04,26,04,18,7.30
2020,04,26,04,19,7.30
2020,04,26,04,20,7.30
2020,04,26,04,21,7.20
2020,04,26,04,22,7.20
2020,04,26,04,23,7.10
2020,04,26,04,24,7.10
2020,04,26,04,25,7.10
2020,04,26,04,26,7.00
2020,04,26,04,27,7.00
2020,04,26,04,28,7.00
2020,04,26,04,29,7.00
2020,04,26,04,30,7.00
2020,04,26,04,31,7.00
2020,04,26,04,32,7.00
2020,04,26,04,33,6.90
2020,04,26,04,34,6.90
2020,04,26,04,35,6.90
2020,04,26,04,36,6.90
2020,04,26,04,37,7.00
2020,04,26,04,38,7.00
2020,04,26,04,39,7.00
2020,04,26,04,40,7.00
2020,04,26,04,41,7.10
2020,04,26,04,42,7.10
2020,04,26,04,43,7.20
2020,04,26,04,44,7.20
2020,04,26,04,45,7.20
2020,04,26,04,46,7.20
2020,04,26,04,47,7.20
2020,04,26,04,48,7.20
2020,04,26,04,49,7.20
2020,04,26,04,50,7.20
2020,04,26,04,51,7.20
2020,04,26,04,52,7.20
2020,04,26,04,53,7.20
2020,04,26,04,54,7.20
2020,04,26,04,55,7.20
2020,04,26,04,56,7.10
2020,04,26,04,57,7.10
2020,04,26,04,58,7.10
2020,04,26,04,59,7.00
2020,04,26,05,00,7.00
2020,04,26,05,01,7.00
2020,04,26,05,02,6.90
2020,04,26,05,03,6.90
2020,04,26,05,04,6.90
2020,04,26,05,05,6.90
2020,04,26,05,06,6.90
2020,04,26,05,07,6.90
2020,04,26,05,08,6.90
2020,04,26,05,09,7.00
2020,04,26,05,10,7.10
2020,04,26,05,11,7.20
2020,04,26,05,12,7.20
2020,04,26,05,13,7.30
2020,04,26,05,14,7.40
2020,04,26,05,15,7.40
2020,04,26,05,16,7.40
2020,04,26,05,17,7.40
2020,04,26,05,18,7.40
2020,04,26,05,19,7.40
2020,04,26,05,20,7.40
2020,04,26,05,21,7.40
2020,04,26,05,22,7.40
2020,04,26,05,23,7.30
2020,04,26,05,24,7.20
2020,04,26,05,25,7.20
2020,04,26,05,26,7.10
2020,04,26,05,27,7.00
2020,04,26,05,28,6.90
2020,04,26,05,29,6.90
2020,04,26,05,30,6.90
2020,04,26,05,31,6.90
2020,04,26,05,32,6.90
2020,04,26,05,33,6.80
2020,04,26,05,34,6.80
2020,04,26,05,35,6.80
2020,04,26,05,36,6.80
2020,04,26,05,37,6.80
2020,04,26,05,38,6.80
2020,04,26,05,39,6.70
2020,04,26,05,40,6.70
2020,04,26,05,41,6.70
2020,04,26,05,42,6.70
2020,04,26,05,43,6.70
2020,04,26,05,44,6.70
2020,04,26,05,45,6.70
2020,04,26,05,46,6.60
2020,04,26,05,47,6.60
2020,04,26,05,48,6.60
2020,04,26,05,49,6.60
2020,04,26,05,50,6.60
2020,04,26,05,51,6.60
2020,04,26,05,52,6.60
2020,04,26,05,53,6.60
2020,04,26,05,54,6.60
2020,04,26,05,55,6.60
2020,04,26,05,56,6.60
2020,04,26,05,57,6.50
2020,04,26,05,58,6.50
2020,04,26,05,59,6.50
2020,04,26,06,00,6.50
2020,04,26,06,01,6.50
2020,04,26,06,02,6.50
2020,04,26,06,03,6.50
2020,04,26,06,04,6.50
2020,04,26,06,05,6.50
2020,04,26,06,06,6.60
2020,04,26,06,07,6.60
2020,04,26,06,08,6.60
2020,04,26,06,09,6.60
2020,04,26,06,10,6.70
2020,04,26,06,11,6.70
2020,04,26,06,12,6.70
2020,04,26,06,13,6.70
2020,04,26,06,14,6.70
2020,04,26,06,15,6.70
2020,04,26,06,16,6.70
2020,04,26,06,17,6.70
2020,04,26,06,18,6.70
2020,04,26,06,19,6.70
2020,04,26,06,20,6.70
2020,04,26,06,21,6.70
2020,04,26,06,22,6.80
2020,04,26,06,23,6.80
2020,04,26,06,24,6.90
2020,04,26,06,25,6.90
2020,04,26,06,26,6.90
2020,04,26,06,27,7.00
2020,04,26,06,28,7.00
2020,04,26,06,29,7.10
2020,04,26,06,30,7.10
2020,04,26,06,31,7.20
2020,04,26,06,32,7.20
2020,04,26,06,33,7.30
2020,04,26,06,34,7.40
2020,04,26,06,35,7.40
2020,04,26,06,36,7.40
2020,04,26,06,37,7.50
2020,04,26,06,38,7.60
2020,04,26,06,39,7.60
2020,04,26,06,40,7.60
2020,04,26,06,41,7.70
2020,04,26,06,42,7.70
2020,04,26,06,43,7.70
2020,04,26,06,44,7.80
2020,04,26,06,45,7.80
2020,04,26,06,46,7.80
2020,04,26,06,47,7.90
2020,04,26,06,48,7.90
2020,04,26,06,49,7.90
2020,04,26,06,50,8.00
2020,04,26,06,51,8.00
2020,04,26,06,52,8.10
2020,04,26,06,53,8.10
2020,04,26,06,54,8.10
2020,04,26,06,55,8.10
2020,04,26,06,56,8.20
2020,04,26,06,57,8.20
2020,04,26,06,58,8.20
2020,04,26,06,59,8.20
2020,04,26,07,00,8.30
2020,04,26,07,01,8.30
2020,04,26,07,02,8.30
2020,04,26,07,03,8.30
2020,04,26,07,04,8.40
2020,04,26,07,05,8.40
2020,04,26,07,06,8.40
2020,04,26,07,07,8.40
2020,04,26,07,08,8.40
2020,04,26,07,09,8.50
2020,04,26,07,10,8.50
2020,04,26,07,11,8.60
2020,04,26,07,12,8.60
2020,04,26,07,13,8.60
2020,04,26,07,14,8.60
2020,04,26,07,15,8.70
2020,04,26,07,16,8.70
2020,04,26,07,17,8.70
2020,04,26,07,18,8.70
2020,04,26,07,19,8.70
2020,04,26,07,20,8.70
2020,04,26,07,21,8.60
2020,04,26,07,22,8.60
2020,04,26,07,23,8.60
2020,04,26,07,24,8.60
2020,04,26,07,25,8.50
2020,04,26,07,26,8.50
2020,04,26,07,27,8.50
2020,04,26,07,28,8.40
2020,04,26,07,29,8.40
2020,04,26,07,30,8.40
2020,04,26,07,31,8.40
2020,04,26,07,32,8.40
2020,04,26,07,33,8.30
2020,04,26,07,34,8.30
2020,04,26,07,35,8.30
2020,04,26,07,36,8.30
2020,04,26,07,37,8.30
2020,04,26,07,38,8.30
2020,04,26,07,39,8.30
2020,04,26,07,40,8.30
2020,04,26,07,41,8.20
2020,04,26,07,42,8.20
2020,04,26,07,43,8.20
2020,04,26,07,44,8.20
2020,04,26,07,45,8.20
2020,04,26,07,46,8.20
2020,04,26,07,47,8.20
2020,04,26,07,48,8.20
2020,04,26,07,49,8.20
2020,04,26,07,50,8.20
2020,04,26,07,51,8.20
2020,04,26,07,52,8.10
2020,04,26,07,53,8.10
2020,04,26,07,54,8.10
2020,04,26,07,55,8.10
2020,04,26,07,56,8.10
2020,04,26,07,57,8.10
2020,04,26,07,58,8.10
2020,04,26,07,59,8.10
2020,04,26,08,00,8.10
2020,04,26,08,01,8.10
2020,04,26,08,02,8.10
2020,04,26,08,03,8.10
2020,04,26,08,04,8.10
2020,04,26,08,05,8.20
2020,04,26,08,06,8.20
2020,04,26,08,07,8.20
2020,04,26,08,08,8.20
2020,04,26,08,09,8.20
2020,04,26,08,10,8.20
2020,04,26,08,11,8.20
2020,04,26,08,12,8.30
2020,04,26,08,13,8.30
2020,04,26,08,14,8.30
2020,04,26,08,15,8.30
2020,04,26,08,16,8.30
2020,04,26,08,17,8.40
2020,04,26,08,18,8.40
2020,04,26,08,19,8.40
2020,04,26,08,20,8.40
2020,04,26,08,21,8.50
2020,04,26,08,22,8.50
2020,04,26,08,23,8.60
2020,04,26,08,24,8.60
2020,04,26,08,25,8.60
2020,04,26,08,26,8.70
2020,04,26,08,27,8.70
2020,04,26,08,28,8.70
2020,04,26,08,29,8.70
2020,04,26,08,30,8.70
2020,04,26,08,31,8.70
2020,04,26,08,32,8.70
2020,04,26,08,33,8.70
2020,04,26,08,34,8.70
2020,04,26,08,35,8.60
2020,04,26,08,36,8.60
2020,04,26,08,37,8.60
2020,04,26,08,38,8.60
2020,04,26,08,39,8.60
2020,04,26,08,40,8.50
2020,04,26,08,41,8.50
2020,04,26,08,42,8.50
2020,04,26,08,43,8.50
2020,04,26,08,44,8.50
2020,04,26,08,45,8.50
2020,04,26,08,46,8.50
2020,04,26,08,47,8.50
2020,04,26,08,48,8.50
2020,04,26,08,49,8.50
2020,04,26,08,50,8.40
2020,04,26,08,51,8.40
2020,04,26,08,52,8.40
2020,04,26,08,53,8.40
2020,04,26,08,54,8.40
2020,04,26,08,55,8.40
2020,04,26,08,56,8.40
2020,04,26,08,57,8.50
2020,04,26,08,58,8.50
2020,04,26,08,59,8.50
2020,04,26,09,00,8.60
2020,04,26,09,01,8.60
2020,04,26,09,02,8.60
2020,04,26,09,03,8.70
2020,04,26,09,04,8.70
2020,04,26,09,05,8.70
2020,04,26,09,06,8.80
2020,04,26,09,07,8.80
2020,04,26,09,08,8.90
2020,04,26,09,09,9.00
2020,04,26,09,10,9.00
2020,04,26,09,11,9.10
2020,04,26,09,12,9.10
2020,04,26,09,13,9.20
2020,04,26,09,14,9.20
2020,04,26,09,15,9.20
2020,04,26,09,16,9.20
2020,04,26,09,17,9.20
2020,04,26,09,18,9.30
2020,04,26,09,19,9.30
2020,04,26,09,20,9.30
2020,04,26,09,21,9.30
2020,04,26,09,22,9.30
2020,04,26,09,23,9.30
2020,04,26,09,24,9.30
2020,04,26,09,25,9.40
2020,04,26,09,26,9.40
2020,04,26,09,27,9.40
2020,04,26,09,28,9.40
2020,04,26,09,29,9.50
2020,04,26,09,30,9.50
2020,04,26,09,31,9.50
2020,04,26,09,32,9.50
2020,04,26,09,33,9.60
2020,04,26,09,34,9.60
2020,04,26,09,35,9.60
2020,04,26,09,36,9.60
2020,04,26,09,37,9.70
2020,04,26,09,38,9.70
2020,04,26,09,39,9.80
2020,04,26,09,40,9.80
2020,04,26,09,41,9.80
2020,04,26,09,42,9.90
2020,04,26,09,43,9.90
2020,04,26,09,44,9.90
2020,04,26,09,45,10.00
2020,04,26,09,46,10.00
2020,04,26,09,47,10.10
2020,04,26,09,48,10.10
2020,04,26,09,49,10.20
2020,04,26,09,50,10.20
2020,04,26,09,51,10.20
2020,04,26,09,52,10.30
2020,04,26,09,53,10.30
2020,04,26,09,54,10.40
2020,04,26,09,55,10.40
2020,04,26,09,56,10.50
2020,04,26,09,57,10.50
2020,04,26,09,58,10.60
2020,04,26,09,59,10.60
2020,04,26,10,00,10.70
2020,04,26,10,01,10.80
2020,04,26,10,02,10.80
2020,04,26,10,03,10.80
2020,04,26,10,04,10.90
2020,04,26,10,05,10.90
2020,04,26,10,06,11.00
2020,04,26,10,07,11.00
2020,04,26,10,08,11.10
2020,04,26,10,09,11.00
2020,04,26,10,10,11.00
2020,04,26,10,11,11.10
2020,04,26,10,12,11.10
2020,04,26,10,13,11.10
2020,04,26,10,14,11.10
2020,04,26,10,15,11.10
2020,04,26,10,16,11.10
2020,04,26,10,17,11.00
2020,04,26,10,18,11.00
2020,04,26,10,19,10.90
2020,04,26,10,20,10.90
2020,04,26,10,21,10.90
2020,04,26,10,22,10.90
2020,04,26,10,23,10.90
2020,04,26,10,24,10.90
2020,04,26,10,25,10.90
2020,04,26,10,26,10.90
2020,04,26,10,27,11.00
2020,04,26,10,28,11.10
2020,04,26,10,29,11.10
2020,04,26,10,30,11.10
2020,04,26,10,31,11.20
2020,04,26,10,32,11.20
2020,04,26,10,33,11.30
2020,04,26,10,34,11.30
2020,04,26,10,35,11.40
2020,04,26,10,36,11.50
2020,04,26,10,37,11.50
2020,04,26,10,38,11.60
2020,04,26,10,39,11.50
2020,04,26,10,40,11.50
2020,04,26,10,41,11.50
2020,04,26,10,42,11.40
2020,04,26,10,43,11.40
2020,04,26,10,44,11.40
2020,04,26,10,45,11.40
2020,04,26,10,46,11.40
2020,04,26,10,47,11.40
2020,04,26,10,48,11.40
2020,04,26,10,49,11.40
2020,04,26,10,50,11.40
2020,04,26,10,51,11.40
2020,04,26,10,52,11.40
2020,04,26,10,53,11.50
2020,04,26,10,54,11.50
2020,04,26,10,55,11.40
2020,04,26,10,56,11.40
2020,04,26,10,57,11.40
2020,04,26,10,58,11.30
2020,04,26,10,59,11.30
2020,04,26,11,00,11.20
2020,04,26,11,01,11.20
2020,04,26,11,02,11.20
2020,04,26,11,03,11.10
2020,04,26,11,04,11.10
2020,04,26,11,05,11.10
2020,04,26,11,06,11.10
2020,04,26,11,07,11.10
2020,04,26,11,08,11.10
2020,04,26,11,09,11.10
2020,04,26,11,10,11.10
2020,04,26,11,11,11.10
2020,04,26,11,12,11.10
2020,04,26,11,13,11.20
2020,04,26,11,14,11.30
2020,04,26,11,15,11.30
2020,04,26,11,16,11.40
2020,04,26,11,17,11.40
2020,04,26,11,18,11.50
2020,04,26,11,19,11.50
2020,04,26,11,20,11.60
2020,04,26,11,21,11.60
2020,04,26,11,22,11.60
2020,04,26,11,23,11.70
2020,04,26,11,24,11.70
2020,04,26,11,25,11.70
2020,04,26,11,26,11.60
2020,04,26,11,27,11.60
2020,04,26,11,28,11.50
2020,04,26,11,29,11.40
2020,04,26,11,30,11.20
2020,04,26,11,31,11.20
2020,04,26,11,32,11.10
2020,04,26,11,33,11.00
2020,04,26,11,34,10.90
2020,04,26,11,35,10.90
2020,04,26,11,36,10.90
2020,04,26,11,37,10.90
2020,04,26,11,38,10.90
2020,04,26,11,39,10.90
2020,04,26,11,40,10.80
2020,04,26,11,41,10.90
2020,04,26,11,42,10.90
2020,04,26,11,43,10.90
2020,04,26,11,44,10.90
2020,04,26,11,45,11.00
2020,04,26,11,46,11.00
2020,04,26,11,47,11.00
2020,04,26,11,48,11.00
2020,04,26,11,49,11.00
2020,04,26,11,50,11.00
2020,04,26,11,51,11.10
2020,04,26,11,52,11.10
2020,04,26,11,53,11.10
2020,04,26,11,54,11.10
2020,04,26,11,55,11.10
2020,04,26,11,56,11.10
2020,04,26,11,57,11.10
2020,04,26,11,58,11.10
2020,04,26,11,59,11.00
2020,04,26,12,00,11.00
2020,04,26,12,01,11.00
2020,04,26,12,02,10.90
2020,04,26,12,03,10.90
2020,04,26,12,04,11.00
2020,04,26,12,05,11.10
2020,04,26,12,06,11.10
2020,04,26,12,07,11.10
2020,04,26,12,08,11.20
2020,04,26,12,09,11.20
2020,04,26,12,10,11.20
2020,04,26,12,11,11.20
2020,04,26,12,12,11.30
2020,04,26,12,13,11.30
2020,04,26,12,14,11.30
2020,04,26,12,15,11.20
2020,04,26,12,16,11.30
2020,04,26,12,17,11.20
2020,04,26,12,18,11.20
2020,04,26,12,19,11.30
2020,04,26,12,20,11.30
2020,04,26,12,21,11.30
2020,04,26,12,22,11.30
2020,04,26,12,23,11.30
2020,04,26,12,24,11.30
2020,04,26,12,25,11.40
2020,04,26,12,26,11.40
2020,04,26,12,27,11.40
2020,04,26,12,28,11.40
2020,04,26,12,29,11.40
2020,04,26,12,30,11.40
2020,04,26,12,31,11.40
2020,04,26,12,32,11.40
2020,04,26,12,33,11.40
2020,04,26,12,34,11.40
2020,04,26,12,35,11.40
2020,04,26,12,36,11.40
2020,04,26,12,37,11.50
2020,04,26,12,38,11.50
2020,04,26,12,39,11.50
2020,04,26,12,40,11.50
2020,04,26,12,41,11.50
2020,04,26,12,42,11.50
2020,04,26,12,43,11.50
2020,04,26,12,44,11.40
2020,04,26,12,45,11.40
2020,04,26,12,46,11.30
2020,04,26,12,47,11.30
2020,04,26,12,48,11.40
2020,04,26,12,49,11.50
2020,04,26,12,50,11.60
2020,04,26,12,51,11.70
2020,04,26,12,52,11.70
2020,04,26,12,53,11.80
2020,04,26,12,54,11.80
2020,04,26,12,55,11.80
2020,04,26,12,56,11.80
2020,04,26,12,57,11.90
2020,04,26,12,58,11.90
2020,04,26,12,59,12.00
2020,04,26,13,00,12.10
2020,04,26,13,01,12.10
2020,04,26,13,02,12.10
2020,04,26,13,03,12.10
2020,04,26,13,04,12.10
2020,04,26,13,05,12.10
2020,04,26,13,06,12.20
2020,04,26,13,07,12.20
2020,04,26,13,08,12.20
2020,04,26,13,09,12.10
2020,04,26,13,10,12.10
2020,04,26,13,11,12.00
2020,04,26,13,12,11.90
2020,04,26,13,13,11.80
2020,04,26,13,14,11.80
2020,04,26,13,15,11.80
2020,04,26,13,16,11.80
2020,04,26,13,17,11.80
2020,04,26,13,18,11.90
2020,04,26,13,19,12.00
2020,04,26,13,20,12.10
2020,04,26,13,21,12.10
2020,04,26,13,22,12.10
2020,04,26,13,23,12.10
2020,04,26,13,24,12.10
2020,04,26,13,25,12.10
2020,04,26,13,26,12.10
2020,04,26,13,27,12.20
2020,04,26,13,28,12.20
2020,04,26,13,29,12.20
2020,04,26,13,30,12.10
2020,04,26,13,31,12.10
2020,04,26,13,32,12.00
2020,04,26,13,33,12.00
2020,04,26,13,34,12.00
2020,04,26,13,35,11.90
2020,04,26,13,36,12.00
2020,04,26,13,37,12.00
2020,04,26,13,38,12.00
2020,04,26,13,39,12.00
2020,04,26,13,40,12.00
2020,04,26,13,41,11.90
2020,04,26,13,42,11.80
2020,04,26,13,43,11.70
2020,04,26,13,44,11.70
2020,04,26,13,45,11.70
2020,04,26,13,46,11.70
2020,04,26,13,47,11.70
2020,04,26,13,48,11.60
2020,04,26,13,49,11.70
2020,04,26,13,50,11.70
2020,04,26,13,51,11.70
2020,04,26,13,52,11.80
2020,04,26,13,53,11.70
2020,04,26,13,54,11.60
2020,04,26,13,55,11.60
2020,04,26,13,56,11.60
2020,04,26,13,57,11.60
2020,04,26,13,58,11.60
2020,04,26,13,59,11.70
2020,04,26,14,00,11.80
2020,04,26,14,01,11.80
2020,04,26,14,02,11.90
2020,04,26,14,03,12.00
2020,04,26,14,04,12.20
2020,04,26,14,05,12.30
2020,04,26,14,06,12.30
2020,04,26,14,07,12.40
2020,04,26,14,08,12.30
2020,04,26,14,09,12.30
2020,04,26,14,10,12.30
2020,04,26,14,11,12.30
2020,04,26,14,12,12.40
2020,04,26,14,13,12.40
2020,04,26,14,14,12.30
2020,04,26,14,15,12.20
2020,04,26,14,16,12.20
2020,04,26,14,17,12.10
2020,04,26,14,18,12.10
2020,04,26,14,19,12.10
2020,04,26,14,20,12.20
2020,04,26,14,21,12.20
2020,04,26,14,22,12.10
2020,04,26,14,23,12.10
2020,04,26,14,24,12.10
2020,04,26,14,25,12.10
2020,04,26,14,26,12.00
2020,04,26,14,27,12.00
2020,04,26,14,28,11.90
2020,04,26,14,29,11.90
2020,04,26,14,30,11.90
2020,04,26,14,31,11.80
2020,04,26,14,32,11.80
2020,04,26,14,33,11.80
2020,04,26,14,34,11.80
2020,04,26,14,35,11.70
2020,04,26,14,36,11.70
2020,04,26,14,37,11.70
2020,04,26,14,38,11.70
2020,04,26,14,39,11.70
2020,04,26,14,40,11.70
2020,04,26,14,41,11.70
2020,04,26,14,42,11.70
2020,04,26,14,43,11.70
2020,04,26,14,44,11.70
2020,04,26,14,45,11.80
2020,04,26,14,46,11.80
2020,04,26,14,47,11.80
2020,04,26,14,48,11.90
2020,04,26,14,49,11.90
2020,04,26,14,50,11.90
2020,04,26,14,51,12.00
2020,04,26,14,52,12.00
2020,04,26,14,53,12.00
2020,04,26,14,54,12.00
2020,04,26,14,55,12.00
2020,04,26,14,56,11.90
2020,04,26,14,57,12.00
2020,04,26,14,58,12.00
2020,04,26,14,59,12.10
2020,04,26,15,00,12.10
2020,04,26,15,01,12.20
2020,04,26,15,02,12.10
2020,04,26,15,03,12.10
2020,04,26,15,04,12.10
2020,04,26,15,05,12.10
2020,04,26,15,06,12.10
2020,04,26,15,07,12.10
2020,04,26,15,08,12.20
2020,04,26,15,09,12.20
2020,04,26,15,10,12.20
2020,04,26,15,11,12.30
2020,04,26,15,12,12.40
2020,04,26,15,13,12.60
2020,04,26,15,14,12.70
2020,04,26,15,15,12.70
2020,04,26,15,16,12.60
2020,04,26,15,17,12.70
2020,04,26,15,18,12.70
2020,04,26,15,19,12.70
2020,04,26,15,20,12.70
2020,04,26,15,21,12.80
2020,04,26,15,22,12.80
2020,04,26,15,23,12.80
2020,04,26,15,24,12.70
2020,04,26,15,25,12.70
2020,04,26,15,26,12.80
2020,04,26,15,27,12.80
2020,04,26,15,28,12.70
2020,04,26,15,29,12.50
2020,04,26,15,30,12.40
2020,04,26,15,31,12.20
2020,04,26,15,32,12.20
2020,04,26,15,33,12.10
2020,04,26,15,34,12.10
2020,04,26,15,35,12.10
2020,04,26,15,36,12.10
2020,04,26,15,37,12.10
2020,04,26,15,38,12.10
2020,04,26,15,39,12.10
2020,04,26,15,40,12.10
2020,04,26,15,41,12.10
2020,04,26,15,42,12.10
2020,04,26,15,43,12.20
2020,04,26,15,44,12.20
2020,04,26,15,45,12.20
2020,04,26,15,46,12.20
2020,04,26,15,47,12.10
2020,04,26,15,48,12.10
2020,04,26,15,49,12.00
2020,04,26,15,50,12.10
2020,04,26,15,51,12.10
2020,04,26,15,52,12.20
2020,04,26,15,53,12.30
2020,04,26,15,54,12.30
2020,04,26,15,55,12.30
2020,04,26,15,56,12.40
2020,04,26,15,57,12.40
2020,04,26,15,58,12.40
2020,04,26,15,59,12.30
2020,04,26,16,00,12.30
2020,04,26,16,01,12.40
2020,04,26,16,02,12.50
2020,04,26,16,03,12.60
2020,04,26,16,04,12.60
2020,04,26,16,05,12.70
2020,04,26,16,06,12.70
2020,04,26,16,07,12.60
2020,04,26,16,08,12.60
2020,04,26,16,09,12.60
2020,04,26,16,10,12.60
2020,04,26,16,11,12.60
2020,04,26,16,12,12.70
2020,04,26,16,13,12.80
2020,04,26,16,14,12.80
2020,04,26,16,15,12.90
2020,04,26,16,16,13.00
2020,04,26,16,17,13.00
2020,04,26,16,18,13.00
2020,04,26,16,19,13.00
2020,04,26,16,20,13.00
2020,04,26,16,21,13.00
2020,04,26,16,22,12.90
2020,04,26,16,23,12.90
2020,04,26,16,24,12.80
2020,04,26,16,25,12.80
2020,04,26,16,26,12.90
2020,04,26,16,27,13.00
2020,04,26,16,28,13.10
2020,04,26,16,29,13.20
2020,04,26,16,30,13.30
2020,04,26,16,31,13.40
2020,04,26,16,32,13.60
2020,04,26,16,33,13.60
2020,04,26,16,34,13.50
2020,04,26,16,35,13.50
2020,04,26,16,36,13.50
2020,04,26,16,37,13.50
2020,04,26,16,38,13.40
2020,04,26,16,39,13.40
2020,04,26,16,40,13.30
2020,04,26,16,41,13.30
2020,04,26,16,42,13.30
2020,04,26,16,43,13.20
2020,04,26,16,44,13.10
2020,04,26,16,45,13.10
2020,04,26,16,46,13.10
2020,04,26,16,47,13.10
2020,04,26,16,48,13.10
2020,04,26,16,49,13.10
2020,04,26,16,50,13.10
2020,04,26,16,51,13.00
2020,04,26,16,52,13.00
2020,04,26,16,53,12.90
2020,04,26,16,54,12.90
2020,04,26,16,55,13.00
2020,04,26,16,56,13.00
2020,04,26,16,57,12.90
2020,04,26,16,58,12.90
2020,04,26,16,59,12.80
2020,04,26,17,00,12.80
2020,04,26,17,01,12.80
2020,04,26,17,02,12.70
2020,04,26,17,03,12.70
2020,04,26,17,04,12.60
2020,04,26,17,05,12.60
2020,04,26,17,06,12.60
2020,04,26,17,07,12.60
2020,04,26,17,08,12.50
2020,04,26,17,09,12.40
2020,04,26,17,10,12.40
2020,04,26,17,11,12.30
2020,04,26,17,12,12.30
2020,04,26,17,13,12.30
2020,04,26,17,14,12.20
2020,04,26,17,15,12.20
2020,04,26,17,16,12.20
2020,04,26,17,17,12.20
2020,04,26,17,18,12.20
2020,04,26,17,19,12.30
2020,04,26,17,20,12.30
2020,04,26,17,21,12.30
2020,04,26,17,22,12.30
2020,04,26,17,23,12.20
2020,04,26,17,24,12.20
2020,04,26,17,25,12.20
2020,04,26,17,26,12.20
2020,04,26,17,27,12.20
2020,04,26,17,28,12.20
2020,04,26,17,29,12.20
2020,04,26,17,30,12.20
2020,04,26,17,31,12.20
2020,04,26,17,32,12.20
2020,04,26,17,33,12.20
2020,04,26,17,34,12.20
2020,04,26,17,35,12.10
2020,04,26,17,36,12.10
2020,04,26,17,37,12.10
2020,04,26,17,38,12.20
2020,04,26,17,39,12.20
2020,04,26,17,40,12.10
2020,04,26,17,41,12.10
2020,04,26,17,42,12.10
2020,04,26,17,43,12.10
2020,04,26,17,44,12.10